www.pogodaiklimat.ru

Погода и климат >> Архив погоды >> Аргентина >> Villa Dolores


ПОГОДА в Villa Dolores

  • Прогноз погоды в Villa Dolores
  • Монитор погоды в Villa Dolores
  • Климат города

АРХИВ ПОГОДЫ в Villa Dolores

Время (UTC), дата Ветер
(напр.,м/с)
 
Видим.   Явления Облачность Т
(С)
Тd
(С)
f
(%)
Тe
(С)
Тes
(С)
Комфортность P
(гПа)
Po
(гПа)
Тmin
(С)
Tmax
(С)
R
(мм)
R24
(мм)
S
(см)
03 14.11 ЮВ 3 30 км ясно +9.4 +7.8 90 +7 +7 1016.4 950.6
06 14.11 Ю 1 30 км ясно +8.2 +6.1 87 +7 +7 1015.7 949.7
09 14.11 Ю 2 20 км дым ясно +7.6 +5.4 86 +6 +6 1014.4 948.5
12 14.11 штиль 0 30 км ясно +13.8 +7.5 66 +14 +21 1016.3 950.0 +6.7 +13.8 3
15 14.11 ЮЗ 3 30 км ясно +20.6 +7.4 42 +22 +39 комфорт 1015.9 950.1
18 14.11 СЗ 1 30 км ясно +24.4 +6.4 31 +24 +46 комфорт 1012.7 947.4
21 14.11 ЮЗ 2 30 км ясно +25.4 +5.8 28 +25 +30 комфорт 1010.0 945.0
00 15.11 В 2 30 км ясно +17.9 +12.5 71 +19 +19 1011.5 946.2 +13.8 +26.4
03 15.11 СВ 5 30 км ясно +17.5 +7.1 50 +17 +17 1011.0 946.5
06 15.11 СВ 6 30 км ясно +18.2 +5.2 42 +18 +18 1009.1 945.2
09 15.11 СВ 4 30 км ясно +15.0 +8.3 64 +14 +14 1009.0 944.8
12 15.11 СЗ 6 30 км ясно +23.2 +8.5 39 +24 +27 комфорт 1009.2 945.0 +15.0 +23.2
15 15.11 СЗ 8 30 км ясно +28.0 +6.9 26 +27 +30 жарко 1007.9 944.4
18 15.11 СЗ 4 30 км ясно +30.6 +10.2 28 +30 +42 жарко 1005.3 942.2
21 15.11 З 2 30 км ясно +32.0 +12.4 30 +32 +37 жарко 1004.0 940.9
00 16.11 СВ 3 30 км 1/1 1350 м
[Sc]
+23.2 +14.3 57 +27 +27 душно 1006.4 942.9 +23.0 +32.2
03 16.11 штиль 0 30 км 1/1 1000 м
[Sc]
+19.4 +12.5 64 +21 +21 комфорт 1010.0 946.5
06 16.11 Ю 3 30 км 1/1 1350 м
[Sc]
+16.6 +12.0 74 +17 +17 1009.7 946.1
09 16.11 В 3 30 км 3/3 1200 м
[Sc]
+14.2 +10.5 78 +13 +13 1011.0 946.3
12 16.11 ЮВ 2 30 км 9/9 1500 м
[Sc]
+19.6 +11.7 60 +22 +22 комфорт 1012.6 948.5 +13.7 +24.8
15 16.11 СЗ 3 30 км 4/4 1200 м
[Sc]
+26.2 +14.2 48 +29 +39 жарко 1010.8 947.0
18 16.11 С 6 30 км 5/5 1200 м
[Cu med, cong]
+29.8 +14.2 39 +32 +35 душно 1007.9 944.4
21 16.11 С 9 30 км 1/1 1200 м
[Sc]
+28.8 +14.1 41 +31 +31 жарко 1005.6 941.8
00 17.11 С 4 30 км 3/3 1200 м
[Sc]
+25.0 +14.2 51 +27 +27 жарко 1005.5 942.0 +19.6 +30.4
03 17.11 С 1 30 км 6/6 1350 м
[Sc]
+23.2 +15.8 63 +28 +28 душно 1005.5 942.5
06 17.11 С 5 30 км 4/4 1350 м
[Sc]
+25.6 +12.1 43 +27 +27 жарко 1003.7 941.4
09 17.11 штиль 0 30 км 6/6 1200 м
[Sc]
+21.2 +15.7 71 +24 +24 комфорт 1004.6 941.7
12 17.11 З 1 30 км 4/4 1200 м
[Cu med, cong]
+24.6 +14.9 55 +27 +32 жарко 1005.8 942.8 +19.8 +25.6
15 17.11 ЮЗ 4 30 км 3/3 1200 м
[Cu hum]
+28.4 +16.2 48 +32 +42 душно 1004.9 942.1
18 17.11 Ю 9 30 км 1/1 1200 м
[Cu hum]
+27.8 +15.0 46 +30 +32 жарко 1004.5 942.0
21 17.11 Ю 5 30 км ясно +27.6 +12.2 38 +29 +31 жарко 1004.1 941.2
00 18.11 Ю 6 30 км ясно +20.6 +10.0 51 +22 +22 комфорт 1008.3 944.6 +20.6 +29.7
03 18.11 Ю 6 30 км ясно +16.2 +3.7 43 +15 +15 1014.1 950.0
06 18.11 ЮВ 2 30 км ясно +12.7 +4.5 57 +12 +12 1016.3 951.7
09 18.11 Ю 4 30 км ясно +11.0 +2.5 56 +9 +9 1016.7 951.8
12 18.11 Ю 4 30 км ясно +17.8 +2.0 35 +18 +21 1019.9 954.9 +10.5 +20.6
15 18.11 З 2 30 км ясно +22.5 +1.5 25 +22 +43 комфорт 1018.6 954.6
18 18.11 З 2 30 км ясно +25.0 +1.2 21 +24 +43 комфорт 1017.0 952.1
21 18.11 З 2 30 км ясно +26.4 +4.9 25 +26 +30 жарко 1015.4 950.5
00 19.11 штиль 0 30 км ясно +20.5 +8.3 45 +21 +21 комфорт 1015.8 950.9 +17.8 +26.6
03 19.11 СВ 3 30 км ясно +16.7 +5.2 47 +17 +17 1016.8 952.0
06 19.11 С 6 30 км ясно +19.2 -1.0 26 +19 +19 1014.9 950.8
09 19.11 СВ 3 30 км ясно +16.2 +4.8 47 +16 +16 1014.2 950.0
12 19.11 С 2 30 км ясно +22.8 +6.9 36 +24 +30 комфорт 1014.0 949.8 +14.9 +22.8
15 19.11 СЗ 9 30 км ясно +27.2 +7.2 28 +27 +29 жарко 1012.7 948.6
18 19.11 С 7 30 км ясно +30.3 +7.8 24 +29 +34 жарко 1009.2 946.0
21 19.11 СЗ 5 30 км ясно +31.7 +8.0 23 +31 +33 жарко 1006.6 943.3
00 20.11 С 3 30 км ясно +25.4 +9.8 37 +26 +26 жарко 1008.8 945.4 +22.5 +31.7
03 20.11 СВ 3 30 км ясно +22.7 +9.7 44 +24 +24 комфорт 1011.5 948.1
06 20.11 СВ 3 30 км ясно +21.0 +10.5 51 +23 +23 комфорт 1010.3 947.2
09 20.11 ЮЗ 2 30 км ясно +20.8 +11.8 56 +24 +24 комфорт 1010.2 947.2
12 20.11 ЮВ 2 30 км ясно +25.2 +13.3 48 +27 +34 жарко 1012.4 949.0 +19.8 +25.4
15 20.11 СЗ 2 30 км 1/1 1500 м
[Cu hum]
+29.0 +16.0 45 +32 +49 душно 1011.3 948.1
18 20.11 С 7 30 км 1/1 1500 м
[Cu hum]
+32.0 +14.6 35 +34 +38 душно 1008.2 945.3
21 20.11 СЗ 8 30 км 3/3 1500 м
[Cu hum]
+33.0 +12.5 29 +33 +34 жарко 1005.6 942.9

 

Местоположение метеостанции Villa Dolores (Аргентина): широта -31.95 долгота -65.13 высота над уровнем моря 569 м.

В архиве по умолчанию представлена погода в Villa Dolores за последнюю неделю. Архивные данные за месяц целиком и за предыдущие месяцы, начиная с января 2011 года, Вы можете получить, выбрав интересующий диапазон дат из раскрывающегося списка и нажав кнопку "Ввод!".


*Определитесь, кто Вы:
робот инопланетянин человек

Внимание! Время в таблицах - всемирное. Для получения местного времени необходимо прибавить поправку, которая в Villa Dolores равна -3 ч.

Смотрите также архив погоды в соседних городах и на ближайших метеорологических станциях:

Погода в Cordoba (Аргентина) (113 км)
Погода в Pilar (Аргентина) (122 км)
Погода в Rio Cuarto (Аргентина) (150 км)
Погода в San Luis (Аргентина) (185 км)
Погода в Villa Reynolds (Аргентина) (199 км)
Погода в Chamical (Аргентина) (208 км)
Погода в Villa de Maria del Rio Seco (Аргентина) (267 км)
Погода в Marcos Juarez (Аргентина) (292 км)
Погода в Laboulaye (Аргентина) (293 км)
Погода в San Juan (Аргентина) (316 км)

Пояснения к столбцам:

Ветер - указаны скорость ветра в м/с - средняя за 10 мин, порывы в срок и между сроками (в фигурных скобках) и направление, откуда дует ветер: С - северный, СВ - северо-восточный, В - восточный, ЮВ - юго-восточный, Ю - южный, ЮЗ - юго-западный, З - западный, СЗ - северо-западный.
Видимость - горизонтальная дальность видимости в метрах или километрах. При видимости от 1 до 10 км при отсутствии осадков обычно наблюдается дымка, при ухудшении видимости до 1 км и менее - туман. В сухую погоду видимость может ухудшаться дымом, пылью или мглою.
Явления - указаны атмосферные явления, наблюдавшиеся в срок или в последний час перед сроком; фигурными скобками обозначены явления, наблюдавшиеся между сроками (за 1-3 часа до срока); квадратными скобками обозначены град или гололедные отложения с указанием их диаметра в мм.
Облачность - указаны через наклонную черту общая и нижняя облачность в баллах и высота нижней границы облаков в метрах; квадратными скобками обозначены формы облаков: Ci - перистые, Cs - перисто-слоистые, Cc - перисто-кучевые, Ac - высококучевые, As - высокослоистые, Sc - слоисто-кучевые, Ns - слоисто-дождевые, Cu - кучевые, Cb - кучево-дождевые. Подробнее классификацию облаков см. в Атласе облаков (PDF).
T - Температура воздуха - температура, измеренная на высоте 2 м над землей.
Td - Температура точки росы - температура, при понижении до которой содержащийся в воздухе водяной пар достигнет насыщения.
f - Относительная влажность воздуха - влажноcть воздуха, измеренная на высоте 2 м над землей.
Te - Эффективная температура - температура, которую ощущает одетый по сезону человек в тени. Характеристика душности погоды. При расчете учитывается влияние влажности воздуха и скорости ветра на теплоощущения человека.
Tes - Эффективная температура на солнце - температура, которую ощущает человек, с поправкой на солнечный нагрев. Характеристика знойности погоды. Зависит от высоты солнца над горизонтом, облачности и скорости ветра. Ночью, в пасмурную погоду, а также при ветре 12 м/с и более поправка равна нулю.
P - Атмосферное давление - приведенное к уровню моря атмосферное давление.
Po - Атмосферное давление - измеренное на уровне метеостанции атмосферное давление.
Tmin - Минимальная температура - минимум температуры воздуха на высоте 2 м над землей.
Tmax - Максимальная температура - максимум температуры воздуха на высоте 2 м над землей.
R - Количество осадков - Количество выпавших осадков за период времени, мм. При наведении курсора мыши на число - период времени, за который выпало указанное количество осадков.
R24 - Количество осадков - Количество выпавших осадков за 24 часа, мм.
S - Снежный покров - Высота снежного покрова, см. При наведении курсора мыши на число - состояние снежного покрова и степень покрытия местности в баллах.